SL-8 R/B

Satellite information

Favourite Embed

Satellite Type and Status

ROCKET BODYIN ORBIT

Key statistics

Satellite SL-8 R/B at a glance.

Uptime

18057

Days in orbit

Revolutions

≈ 14.4

Per day

Orbit

LEO

Low Earth Orbit

Inclination

74.1

Latest

Satellite identification and parameters

Extended collection of information and parameters for SL-8 R/B.

Object identification

Identified? True

Debris? False

Object name: SL-8 R/B

International designator: 1975-112B

Object number (NORAD): 8459

Object ID (CCSDS): 8459

Country: COMMONWEALTH OF INDEPENDENT STATES (CIS)

Current information (Y/N): Y

RCS size: LARGE

Orbital parameters

Period: 100.139 minutes

Inclination: 74.0615 deg

SMA: 7143.265 km

Apoapsis: 776.016 km

Periapsis: 754.244 km

RAAN: 225.5412 deg

Eccentricy: 0.001524

Argument of periapsis: 30.1765 deg

Mean anomaly: 330.0264 deg

Mean motion: 14.37995855 rev/day

Mean motion (dot): 0.00000352 rev/day2

B* drag term: 0.00012491 1/REarth

Two-line elements (TLE)

Creation date: May 6, 2025, 3:54 a.m.

Reference frame: TEME

Reference center: EARTH

Epoch: May 5, 2025, 2:38 p.m. UTC

TLE line 0: 0 SL-8 R/B

TLE line 1: 1 08459U 75112B 25125.61019723 .00000352 00000-0 12491-3 0 9996

TLE line 2: 2 08459 74.0615 225.5412 0015240 30.1765 330.0264 14.37995855587583

Live tracking on map

Real-time ground track for satellite SL-8 R/B.

In-orbit conjunctions

A list of the most updated potential collisions computed for object SL-8 R/B.

Target Orbit TCA Probability of collision Miss distance Type
FENGYUN 1C DEB SSO 2025-03-04 05:24:48 0.0001451734 369.0 (m) DEBRIS
NOAA 16 DEB SSO 2024-11-21 07:55:58 0.000274172 86.0 (m) DEBRIS
FENGYUN 1C DEB SSO 2024-11-10 18:59:35 0.001500462 487.0 (m) DEBRIS
FENGYUN 1C DEB SSO 2024-09-01 15:29:29 0.0001285141 156.0 (m) DEBRIS

Associated space launch

Military communications satellite

SL-8 R/B was lifted into orbit during the mission ‘Kosmos-3M | Strela-2M 11’, on board a Kosmos-3M space rocket.

The launch took place on Nov. 28, 1975, 12:10 a.m. from 132/1 (132L).

For more information about the launch, click the button.

Launch to space Kosmos-3M | Strela-2M 11
Kosmos-3M | Strela-2M 11

Agency: N/A

Status: Launch Successful

Launch date: Nov. 28, 1975, 12:10 a.m. UTC

Rocket: Kosmos-3M

Launch pad: 132/1 (132L)

Location: Plesetsk Cosmodrome, Russian Federation

...

Latest news about this satellite

There are no fresh news available about this satellite. Check back as we update our databases every day.


Newsletter sign-up

Weekly statistics, charts and insights to help you stay on top of the space industry.